Location: Driftpile
(55.3500°N, 115.7667°W)
Time: 08:43:09
(UTC+00:00)

N. Korean satellite - Pass Details

Date: 29 November 2021
Orbit: 447 x 490 km, 97.3° (Epoch: 26 January)

Event Time Altitude Azimuth Distance (km) Brightness Sun altitude
Rises 00:36:12 0° 189° (S) 2,547 10.7 -10.1°
Reaches altitude 10° 00:38:27 10° 201° (SSW) 1,664 9.9 -10.4°
Maximum altitude 00:41:39 30° 264° (W) 879 8.7 -10.8°
Drops below altitude 10° 00:44:50 10° 328° (NNW) 1,652 9.4 -11.2°
Sets 00:47:04 0° 339° (NNW) 2,526 10.2 -11.5°
